When you browse on this site, cookies collect data to enhance your experience and personalize the content and advertising you see.
Visit our Privacy Policy to learn more. By continuing to use the site, you agree to this use of cookies and data.
  • In Portugal
  • List of Countries
  • For 7 days
  • Water Temperature
  • Weather Map
  • Weather Widgets
  • user-avatar
    Login

    Hourly Weather Tesnovka

    Today, 20 September, Friday

    Time Temperature Precipitation Wind Pressure Humidity
    00:00 +5°C° 0 mm 3 mps 748 mmHg 90%
    01:00 +4°C° 0 mm 3 mps 748 mmHg 92%
    02:00 +4°C° 0 mm 3 mps 748 mmHg 95%
    03:00 +4°C° 0 mm 4 mps 748 mmHg 94%
    04:00 +4°C° 0 mm 4 mps 748 mmHg 92%
    05:00 +5°C° 0 mm 4 mps 748 mmHg 91%
    06:00 +5°C° 0 mm 5 mps 748 mmHg 87%
    07:00 +6°C° 0 mm 5 mps 748 mmHg 84%
    08:00 +5°C° 0 mm 6 mps 748 mmHg 78%
    09:00 +7°C° 0 mm 6 mps 748 mmHg 73%
    10:00 +7°C° 0 mm 6 mps 748 mmHg 69%
    11:00 +8°C° 0 mm 7 mps 748 mmHg 64%
    12:00 +8°C° 0.1 mm 6 mps 749 mmHg 62%
    13:00 +9°C° 0.1 mm 6 mps 749 mmHg 59%
    14:00 +9°C° 0.1 mm 6 mps 749 mmHg 57%
    15:00 +9°C° 0.1 mm 5 mps 749 mmHg 58%
    16:00 +10°C° 0.1 mm 4 mps 749 mmHg 60%
    17:00 +8°C° 0.1 mm 4 mps 749 mmHg 62%
    18:00 +8°C° 0 mm 3 mps 749 mmHg 66%
    19:00 +5°C° 0 mm 3 mps 750 mmHg 71%
    20:00 +4°C° 0 mm 3 mps 750 mmHg 75%
    21:00 +3°C° 0 mm 3 mps 750 mmHg 77%
    22:00 +4°C° 0 mm 2 mps 750 mmHg 79%
    23:00 +3°C° 0 mm 2 mps 751 mmHg 81%

    Tomorrow, 21 September, Saturday

    Time Temperature Precipitation Wind Pressure Humidity
    00:00 +3°C° 0 mm 2 mps 751 mmHg 82%
    01:00 +3°C° 0 mm 2 mps 751 mmHg 83%
    02:00 +3°C° 0 mm 2 mps 751 mmHg 83%
    03:00 +3°C° 0 mm 2 mps 751 mmHg 83%
    04:00 +3°C° 0 mm 2 mps 751 mmHg 82%
    05:00 +3°C° 0 mm 2 mps 750 mmHg 81%
    06:00 +3°C° 0 mm 3 mps 750 mmHg 78%
    07:00 +4°C° 0 mm 3 mps 750 mmHg 75%
    08:00 +5°C° 0 mm 3 mps 750 mmHg 72%
    09:00 +5°C° 0.2 mm 4 mps 749 mmHg 76%
    10:00 +5°C° 0.2 mm 5 mps 749 mmHg 80%
    11:00 +5°C° 0.2 mm 5 mps 749 mmHg 85%
    12:00 +6°C° 0.6 mm 5 mps 748 mmHg 88%
    13:00 +6°C° 0.6 mm 5 mps 748 mmHg 92%
    14:00 +7°C° 0.6 mm 4 mps 747 mmHg 96%
    15:00 +8°C° 0.3 mm 5 mps 747 mmHg 95%
    16:00 +10°C° 0.3 mm 5 mps 747 mmHg 93%
    17:00 +12°C° 0.3 mm 5 mps 747 mmHg 92%
    18:00 +12°C° 0.1 mm 5 mps 747 mmHg 92%
    19:00 +12°C° 0.1 mm 5 mps 747 mmHg 93%
    20:00 +12°C° 0.1 mm 5 mps 747 mmHg 93%
    21:00 +12°C° 0 mm 5 mps 747 mmHg 93%
    22:00 +11°C° 0 mm 6 mps 747 mmHg 93%
    23:00 +11°C° 0 mm 6 mps 747 mmHg 94%

    Day after tomorrow, 22 September, Sunday

    Time Temperature Precipitation Wind Pressure Humidity
    00:00 +10°C° 0 mm 6 mps 747 mmHg 94%
    01:00 +10°C° 0 mm 6 mps 747 mmHg 94%
    02:00 +10°C° 0 mm 6 mps 747 mmHg 95%
    03:00 +10°C° 0 mm 6 mps 747 mmHg 94%
    04:00 +9°C° 0 mm 6 mps 747 mmHg 94%
    05:00 +9°C° 0 mm 6 mps 747 mmHg 94%
    06:00 +9°C° 0 mm 6 mps 747 mmHg 92%
    07:00 +10°C° 0 mm 5 mps 747 mmHg 91%
    08:00 +10°C° 0 mm 5 mps 747 mmHg 89%
    09:00 +12°C° 0 mm 5 mps 747 mmHg 84%
    10:00 +14°C° 0 mm 5 mps 746 mmHg 79%
    11:00 +15°C° 0 mm 5 mps 746 mmHg 74%
    12:00 +16°C° 0 mm 6 mps 746 mmHg 70%
    13:00 +17°C° 0 mm 6 mps 746 mmHg 66%
    14:00 +18°C° 0 mm 7 mps 746 mmHg 62%
    15:00 +17°C° 0 mm 6 mps 746 mmHg 66%
    16:00 +17°C° 0 mm 5 mps 746 mmHg 70%
    17:00 +16°C° 0 mm 5 mps 745 mmHg 73%
    18:00 +14°C° 0 mm 4 mps 746 mmHg 79%
    19:00 +13°C° 0 mm 4 mps 746 mmHg 85%
    20:00 +11°C° 0 mm 3 mps 747 mmHg 91%
    21:00 +10°C° 0 mm 3 mps 747 mmHg 87%
    22:00 +9°C° 0 mm 3 mps 748 mmHg 83%
    23:00 +8°C° 0 mm 3 mps 748 mmHg 79%

    23 September, Monday

    Time Temperature Precipitation Wind Pressure Humidity
    00:00 +7°C° 0 mm 3 mps 749 mmHg 76%
    01:00 +7°C° 0 mm 3 mps 749 mmHg 73%
    02:00 +5°C° 0 mm 3 mps 749 mmHg 71%
    03:00 +5°C° 0 mm 3 mps 749 mmHg 72%
    04:00 +4°C° 0 mm 3 mps 750 mmHg 73%
    05:00 +3°C° 0 mm 3 mps 750 mmHg 75%
    06:00 +4°C° 0 mm 3 mps 750 mmHg 74%
    07:00 +4°C° 0 mm 3 mps 750 mmHg 73%
    08:00 +4°C° 0 mm 3 mps 750 mmHg 72%
    09:00 +7°C° 0 mm 3 mps 750 mmHg 66%
    10:00 +8°C° 0 mm 3 mps 750 mmHg 60%
    11:00 +9°C° 0 mm 3 mps 751 mmHg 54%
    12:00 +10°C° 0 mm 3 mps 750 mmHg 52%
    13:00 +11°C° 0 mm 3 mps 750 mmHg 49%
    14:00 +11°C° 0 mm 3 mps 749 mmHg 47%
    15:00 +11°C° 0 mm 3 mps 749 mmHg 50%
    16:00 +10°C° 0 mm 3 mps 749 mmHg 53%
    17:00 +10°C° 0 mm 2 mps 749 mmHg 56%
    18:00 +9°C° 0 mm 3 mps 749 mmHg 57%
    19:00 +8°C° 0 mm 3 mps 749 mmHg 58%
    20:00 +7°C° 0 mm 3 mps 749 mmHg 59%
    21:00 +5°C° 0 mm 3 mps 749 mmHg 60%
    22:00 +5°C° 0 mm 3 mps 749 mmHg 62%
    23:00 +4°C° 0 mm 3 mps 749 mmHg 63%

    24 September, Tuesday

    Time Temperature Precipitation Wind Pressure Humidity
    00:00 +4°C° 0 mm 3 mps 749 mmHg 63%
    01:00 +4°C° 0 mm 4 mps 749 mmHg 63%
    02:00 +4°C° 0 mm 4 mps 749 mmHg 64%
    03:00 +3°C° 0 mm 4 mps 748 mmHg 65%
    04:00 +3°C° 0 mm 4 mps 748 mmHg 66%
    05:00 +3°C° 0 mm 4 mps 748 mmHg 67%
    06:00 +3°C° 0 mm 4 mps 748 mmHg 66%
    07:00 +4°C° 0 mm 4 mps 748 mmHg 65%
    08:00 +3°C° 0 mm 5 mps 748 mmHg 64%
    09:00 +6°C° 0 mm 5 mps 748 mmHg 60%
    10:00 +8°C° 0 mm 5 mps 748 mmHg 56%
    11:00 +9°C° 0 mm 5 mps 748 mmHg 52%
    12:00 +11°C° 0 mm 4 mps 748 mmHg 51%
    13:00 +12°C° 0 mm 4 mps 748 mmHg 50%
    14:00 +12°C° 0 mm 4 mps 747 mmHg 50%
    15:00 +12°C° 0 mm 3 mps 747 mmHg 53%
    16:00 +11°C° 0 mm 3 mps 747 mmHg 56%
    17:00 +11°C° 0 mm 3 mps 747 mmHg 60%
    18:00 +9°C° 0 mm 3 mps 747 mmHg 62%
    19:00 +7°C° 0 mm 3 mps 747 mmHg 65%
    20:00 +5°C° 0 mm 3 mps 747 mmHg 68%
    21:00 +4°C° 0 mm 3 mps 747 mmHg 68%
    22:00 +4°C° 0 mm 3 mps 747 mmHg 68%
    23:00 +3°C° 0 mm 3 mps 747 mmHg 68%

    25 September, Wednesday

    Time Temperature Precipitation Wind Pressure Humidity
    00:00 +3°C° 0 mm 3 mps 747 mmHg 69%
    01:00 +2°C° 0 mm 3 mps 747 mmHg 71%
    02:00 +2°C° 0 mm 3 mps 747 mmHg 72%
    03:00 +2°C° 0 mm 3 mps 747 mmHg 74%
    04:00 +1°C° 0 mm 3 mps 747 mmHg 76%
    05:00 +1°C° 0 mm 3 mps 747 mmHg 77%
    06:00 +2°C° 0 mm 3 mps 747 mmHg 74%
    07:00 +3°C° 0 mm 3 mps 747 mmHg 71%
    08:00 +4°C° 0 mm 3 mps 748 mmHg 67%
    09:00 +5°C° 0 mm 3 mps 748 mmHg 62%
    10:00 +8°C° 0 mm 3 mps 748 mmHg 57%
    11:00 +10°C° 0 mm 4 mps 748 mmHg 52%
    12:00 +11°C° 0 mm 3 mps 748 mmHg 50%
    13:00 +12°C° 0 mm 3 mps 748 mmHg 48%
    14:00 +12°C° 0 mm 3 mps 747 mmHg 46%
    15:00 +12°C° 0 mm 3 mps 747 mmHg 50%
    16:00 +11°C° 0 mm 3 mps 747 mmHg 54%
    17:00 +10°C° 0 mm 2 mps 747 mmHg 58%
    18:00 +9°C° 0 mm 3 mps 747 mmHg 61%
    19:00 +7°C° 0 mm 3 mps 748 mmHg 64%
    20:00 +5°C° 0 mm 3 mps 748 mmHg 67%
    21:00 +4°C° 0 mm 3 mps 748 mmHg 68%
    22:00 +4°C° 0 mm 4 mps 748 mmHg 68%
    23:00 +3°C° 0 mm 4 mps 748 mmHg 69%
    Show more